CW1662 Weather Reports


Display with metric or nautical units.
time (UTC)temp
F
wind
direction
speed
MPH
gust
MPH
rain 1hr
in
rain 24hr
in
rain mn
in
humidity
%
barometer
mb
20260831112330 72 355 0.0 0.0 0.00 0.12 0.00 93 1018.7
20260831111835 72 355 0.0 0.0 0.00 0.12 0.00 93 1018.8
20260831111339 72 355 0.0 2.0 0.00 0.12 0.00 93 1018.7
20260831110828 72 355 0.0 1.0 0.00 0.12 0.00 93 1018.8
20260831110352 72 355 1.0 1.0 0.00 0.12 0.00 93 1018.9
20260831105836 72 355 0.0 1.0 0.00 0.12 0.00 93 1018.8
20260831105340 72 355 0.0 1.0 0.00 0.12 0.00 93 1018.8
20260831104824 72 355 0.0 3.0 0.00 0.12 0.00 93 1018.6
20260831104329 72 355 1.0 3.0 0.00 0.12 0.00 93 1018.6
20260831103832 72 355 2.0 2.0 0.00 0.12 0.00 93 1018.5
20260831103339 72 355 1.0 2.0 0.00 0.12 0.00 92 1018.4
20260831102827 72 355 1.0 2.0 0.00 0.12 0.00 93 1018.2
20260831102330 72 355 0.0 0.0 0.00 0.12 0.00 93 1018.0
20260831101835 73 355 0.0 0.0 0.00 0.12 0.00 93 1018.0
20260831101339 73 355 0.0 1.0 0.00 0.12 0.00 93 1018.0
20260831100827 73 355 0.0 1.0 0.00 0.12 0.00 93 1018.0
20260831100334 73 355 0.0 1.0 0.00 0.12 0.00 93 1018.1
20260831095839 73 355 0.0 0.0 0.00 0.12 0.00 93 1018.0
20260831095342 73 355 0.0 0.0 0.00 0.12 0.00 93 1018.0
20260831094827 73 355 0.0 0.0 0.00 0.12 0.00 92 1017.9
20260831094332 73 355 0.0 0.0 0.00 0.12 0.00 92 1017.9
20260831093856 73 355 0.0 1.0 0.00 0.12 0.00 92 1017.9
20260831093340 73 355 0.0 2.0 0.00 0.12 0.00 92 1017.9
20260831092844 73 355 1.0 2.0 0.00 0.12 0.00 92 1017.8
20260831092327 73 355 1.0 2.0 0.00 0.12 0.00 93 1017.7
20260831091835 73 355 0.0 1.0 0.00 0.12 0.00 93 1017.6
20260831091343 73 355 0.0 3.0 0.00 0.12 0.00 93 1017.4
20260831090828 73 355 1.0 3.0 0.00 0.12 0.00 93 1017.5
20260831090331 73 355 1.0 3.0 0.00 0.12 0.00 93 1017.6
20260831085859 73 355 1.0 3.0 0.00 0.12 0.00 92 1017.5
20260831085341 73 355 1.0 3.0 0.00 0.12 0.00 92 1017.5
20260831084826 73 355 1.0 3.0 0.00 0.12 0.00 92 1017.4
20260831084329 73 355 2.0 3.0 0.00 0.12 0.00 92 1017.5
20260831083836 74 355 1.0 2.0 0.00 0.12 0.00 92 1017.5
20260831083343 73 355 0.0 1.0 0.00 0.12 0.00 92 1017.4
20260831082829 73 355 0.0 0.0 0.00 0.12 0.00 92 1017.3
20260831082336 73 355 0.0 1.0 0.00 0.12 0.00 92 1017.4
20260831081900 74 355 0.0 1.0 0.00 0.12 0.00 91 1017.4
20260831081326 74 355 0.0 2.0 0.00 0.12 0.00 91 1017.3
20260831080833 74 355 2.0 2.0 0.00 0.12 0.00 92 1017.4
20260831080341 74 355 0.0 3.0 0.00 0.12 0.00 92 1017.5
20260831075825 74 355 2.0 3.0 0.00 0.12 0.00 92 1017.3
20260831075329 74 355 2.0 3.0 0.00 0.12 0.00 92 1017.3
20260831074834 74 355 1.0 4.0 0.00 0.12 0.00 92 1017.3
20260831074338 74 355 2.0 4.0 0.00 0.12 0.00 92 1017.2
20260831073843 74 355 1.0 4.0 0.00 0.12 0.00 92 1017.3
20260831073327 74 360 2.0 4.0 0.00 0.12 0.00 93 1017.2
20260831072832 74 9 2.0 3.0 0.00 0.12 0.00 93 1017.2
20260831072336 74 170 0.0 3.0 0.00 0.12 0.00 93 1017.3
20260831071824 74 170 1.0 3.0 0.00 0.12 0.00 92 1017.3
20260831071349 74 170 1.0 3.0 0.00 0.12 0.00 91 1017.3
20260831070831 75 170 0.0 1.0 0.00 0.12 0.00 92 1017.2
20260831070339 75 170 0.0 2.0 0.00 0.12 0.00 92 1017.2
20260831065903 75 170 0.0 2.0 0.00 0.12 0.00 92 1017.2
20260831065326 75 170 1.0 1.0 0.00 0.12 0.00 92 1017.2
20260831064831 75 170 0.0 0.0 0.00 0.12 0.00 92 1017.2
20260831064335 75 170 0.0 3.0 0.00 0.12 0.00 91 1017.4
20260831063840 75 170 2.0 3.0 0.00 0.12 0.00 91 1017.4
20260831063324 76 170 0.0 1.0 0.00 0.12 0.00 91 1017.5
20260831062832 76 170 0.0 0.0 0.00 0.12 0.00 91 1017.7
20260831062335 76 170 0.0 0.0 0.00 0.12 0.00 91 1017.7
20260831061824 76 170 0.0 1.0 0.00 0.12 0.00 91 1017.7
20260831061329 76 170 0.0 1.0 0.00 0.12 0.00 91 1017.7
20260831060853 76 170 0.0 1.0 0.00 0.12 0.00 91 1017.7
20260831060335 76 170 0.0 3.0 0.00 0.12 0.00 90 1017.8
20260831055822 76 170 1.0 3.0 0.00 0.12 0.00 90 1017.9
20260831055328 77 170 2.0 2.0 0.00 0.12 0.00 90 1017.9
20260831054836 77 170 0.0 2.0 0.00 0.12 0.00 90 1017.9
20260831054401 76 170 1.0 2.0 0.00 0.12 0.00 90 1017.9
20260831053823 77 170 0.0 2.0 0.00 0.12 0.00 90 1017.9
20260831053331 76 170 0.0 2.0 0.00 0.12 0.00 90 1017.9
20260831052836 76 170 0.0 2.0 0.00 0.12 0.00 90 1017.9
20260831052359 76 170 0.0 4.0 0.00 0.12 0.00 89 1017.9
20260831051827 77 170 2.0 4.0 0.00 0.12 0.00 88 1017.9
20260831051351 77 170 2.0 4.0 0.00 0.12 0.00 87 1017.9
20260831050835 77 170 0.0 2.0 0.00 0.12 0.00 87 1017.7
20260831050340 77 170 0.0 0.0 0.00 0.12 0.00 87 1017.6
20260831045844 77 170 0.0 0.0 0.00 0.12 0.00 87 1017.6
20260831045328 77 170 0.0 0.0 0.00 0.12 0.00 87 1017.5
20260831044832 78 170 0.0 2.0 0.00 0.12 0.00 87 1017.5
20260831044357 78 170 0.0 2.0 0.00 0.12 0.00 87 1017.6
20260831043840 78 170 0.0 1.0 0.00 0.12 0.00 87 1017.6
20260831043343 78 170 0.0 2.0 0.00 0.12 0.00 87 1017.5
20260831042829 78 170 0.0 2.0 0.00 0.12 0.00 87 1017.7
20260831042353 78 170 0.0 0.0 0.00 0.12 0.00 86 1017.6
20260831041857 78 170 0.0 0.0 0.00 0.12 0.00 86 1017.8
20260831041340 78 170 0.0 0.0 0.00 0.12 0.00 86 1017.8
20260831040848 78 170 0.0 0.0 0.00 0.12 0.00 86 1017.8
20260831040331 78 170 0.0 0.0 0.00 0.12 0.00 85 1017.8
20260831035839 78 170 0.0 0.0 0.00 0.12 0.00 85 1017.9
20260831035321 79 170 0.0 1.0 0.00 0.12 0.12 85 1018.1
20260831034828 79 170 0.0 1.0 0.00 0.12 0.12 85 1018.0
20260831034335 78 170 0.0 0.0 0.00 0.12 0.12 85 1018.1
20260831033840 78 170 0.0 0.0 0.00 0.12 0.12 85 1018.2
20260831033325 78 170 0.0 0.0 0.00 0.12 0.12 85 1018.2
20260831032829 79 170 0.0 0.0 0.00 0.12 0.12 85 1018.2
20260831032336 79 170 0.0 0.0 0.00 0.12 0.12 85 1018.1
20260831031840 79 170 0.0 0.0 0.00 0.12 0.12 85 1018.2
20260831031325 79 170 0.0 0.0 0.00 0.12 0.12 85 1018.2
20260831030834 79 170 0.0 0.0 0.00 0.12 0.12 85 1018.2
20260831030337 79 170 0.0 0.0 0.00 0.12 0.12 84 1018.3
20260831025845 79 170 0.0 0.0 0.00 0.12 0.12 84 1018.4
20260831025328 79 170 0.0 1.0 0.00 0.12 0.12 84 1018.4
20260831024833 79 170 0.0 1.0 0.00 0.12 0.12 84 1018.3
20260831024337 80 170 0.0 0.0 0.00 0.12 0.12 83 1018.3
20260831023842 80 170 0.0 0.0 0.00 0.12 0.12 83 1018.1
20260831023327 80 170 0.0 0.0 0.00 0.12 0.12 83 1018.2
20260831022831 80 170 0.0 0.0 0.00 0.12 0.12 83 1018.2
20260831022333 80 170 0.0 0.0 0.00 0.12 0.12 83 1018.0
20260831021825 80 170 0.0 2.0 0.00 0.12 0.12 83 1018.1
20260831021350 80 170 0.0 2.0 0.00 0.12 0.12 82 1018.0
20260831020833 80 170 0.0 1.0 0.00 0.12 0.12 83 1018.3
20260831020338 80 170 0.0 2.0 0.00 0.12 0.12 82 1018.3
20260831015841 80 170 1.0 3.0 0.00 0.12 0.12 82 1018.3
20260831015348 81 170 1.0 4.0 0.00 0.12 0.12 82 1018.2
20260831014832 81 170 1.0 4.0 0.00 0.12 0.12 82 1018.3
20260831014336 81 170 2.0 3.0 0.00 0.12 0.12 82 1018.3
20260831013841 81 170 1.0 2.0 0.00 0.12 0.12 82 1018.2
20260831013325 81 170 0.0 2.0 0.00 0.12 0.12 81 1018.2
20260831012830 81 170 1.0 3.0 0.00 0.12 0.12 81 1018.2
20260831012334 81 170 1.0 3.0 0.00 0.12 0.12 81 1018.0
20260831011858 81 170 0.0 2.0 0.00 0.12 0.12 81 1017.9
20260831011325 81 170 0.0 2.0 0.00 0.12 0.12 81 1017.9
20260831010830 81 170 0.0 0.0 0.00 0.12 0.12 81 1018.0
20260831010335 81 170 0.0 0.0 0.00 0.12 0.12 81 1018.0
20260831005859 81 170 0.0 0.0 0.00 0.12 0.12 81 1017.9
20260831005342 81 170 0.0 0.0 0.00 0.12 0.12 81 1017.8
20260831004827 81 170 0.0 0.0 0.00 0.12 0.12 81 1017.5
20260831004331 81 170 0.0 0.0 0.00 0.12 0.12 81 1017.5
20260831003834 81 170 0.0 0.0 0.00 0.12 0.12 81 1017.4
20260831003342 81 170 0.0 0.0 0.00 0.12 0.12 81 1017.3
20260831002847 81 170 0.0 0.0 0.00 0.12 0.12 81 1017.2
20260831002329 81 170 0.0 0.0 0.00 0.12 0.12 80 1017.2
20260831001834 81 170 0.0 0.0 0.00 0.12 0.12 80 1017.1
20260831001338 82 170 0.0 0.0 0.00 0.12 0.12 80 1017.0
20260831000847 82 170 0.0 0.0 0.00 0.12 0.12 80 1017.0
20260831000334 82 170 0.0 0.0 0.00 0.12 0.12 80 1017.0
20260830235838 82 170 0.0 0.0 0.00 0.12 0.12 81 1017.0
20260830235342 83 170 0.0 0.0 0.00 0.12 0.12 81 1016.9
20260830234826 83 170 0.0 0.0 0.00 0.12 0.12 80 1016.7
20260830234331 83 170 0.0 0.0 0.00 0.12 0.12 79 1016.7
20260830233835 83 170 0.0 0.0 0.00 0.12 0.12 79 1016.8
20260830233340 84 170 0.0 0.0 0.00 0.12 0.12 78 1017.0
20260830232905 84 170 0.0 1.0 0.00 0.12 0.12 77 1016.9
20260830232327 84 170 0.0 3.0 0.00 0.12 0.12 77 1017.0
20260830231831 84 170 0.0 3.0 0.00 0.12 0.12 76 1017.0
20260830231336 85 170 0.0 0.0 0.00 0.12 0.12 75 1017.0
20260830230824 85 170 0.0 0.0 0.00 0.12 0.12 75 1017.0
20260830230330 85 170 0.0 1.0 0.00 0.12 0.12 75 1017.0
20260830225838 85 170 0.0 1.0 0.00 0.12 0.12 74 1017.0
20260830225342 85 170 0.0 1.0 0.00 0.12 0.12 74 1017.0
20260830224826 86 170 0.0 2.0 0.00 0.12 0.12 74 1017.0
20260830224331 86 170 0.0 3.0 0.00 0.12 0.12 73 1016.9
20260830223835 86 170 0.0 3.0 0.00 0.12 0.12 73 1017.0
20260830223340 86 170 0.0 1.0 0.00 0.12 0.12 74 1017.0
20260830222844 86 170 0.0 1.0 0.00 0.12 0.12 74 1017.1
20260830222328 86 170 0.0 1.0 0.00 0.12 0.12 74 1017.2
20260830221837 86 170 0.0 3.0 0.00 0.12 0.12 74 1017.1
20260830221341 86 170 0.0 3.0 0.00 0.12 0.12 73 1017.1
20260830220846 86 170 0.0 2.0 0.00 0.12 0.12 75 1017.0
20260830220329 86 170 1.0 2.0 0.00 0.12 0.12 74 1017.1
20260830215834 86 170 0.0 3.0 0.00 0.12 0.12 74 1017.1
20260830215337 86 170 0.0 3.0 0.00 0.12 0.12 74 1017.0
20260830214902 86 170 0.0 2.0 0.00 0.12 0.12 74 1016.9
20260830214325 86 170 1.0 3.0 0.00 0.12 0.12 73 1016.9
20260830213830 86 170 0.0 3.0 0.00 0.12 0.12 73 1017.1
20260830213335 86 170 1.0 3.0 0.00 0.12 0.12 73 1017.0
20260830212839 86 170 0.0 5.0 0.00 0.12 0.12 75 1017.0
20260830212321 86 101 1.0 5.0 0.00 0.12 0.12 75 1017.0
20260830211849 86 145 1.0 4.0 0.00 0.12 0.12 76 1017.0
20260830211340 86 138 1.0 4.0 0.00 0.12 0.12 75 1017.0
20260830210824 86 117 1.0 4.0 0.00 0.12 0.12 75 1017.1
20260830210329 85 206 0.0 5.0 0.00 0.12 0.12 76 1017.1
20260830205834 85 140 1.0 5.0 0.00 0.12 0.12 77 1017.0
20260830205336 85 190 1.0 4.0 0.00 0.12 0.12 78 1017.0
20260830204844 84 211 1.0 4.0 0.00 0.12 0.12 78 1016.9
20260830204348 84 191 2.0 3.0 0.00 0.12 0.12 81 1017.0
20260830203832 83 196 0.0 5.0 0.00 0.12 0.12 83 1016.9
20260830203336 83 188 2.0 5.0 0.04 0.12 0.12 83 1017.0
20260830202901 82 167 1.0 3.0 0.10 0.12 0.12 84 1017.1
20260830202344 82 85 0.0 3.0 0.12 0.12 0.12 83 1017.1
20260830201828 82 180 1.0 3.0 0.12 0.12 0.12 84 1017.3
20260830201335 82 121 1.0 3.0 0.12 0.12 0.12 86 1017.5
20260830200904 81 141 1.0 4.0 0.12 0.12 0.12 87 1017.4
20260830200327 81 117 1.0 5.0 0.12 0.12 0.12 87 1017.6
20260830195831 80 153 2.0 5.0 0.12 0.12 0.12 88 1017.6
20260830195334 80 134 2.0 4.0 0.12 0.12 0.12 87 1017.8
20260830194842 80 133 1.0 3.0 0.12 0.12 0.12 87 1017.7
20260830194346 80 145 0.0 5.0 0.12 0.12 0.12 84 1017.6
20260830193830 81 202 2.0 5.0 0.12 0.12 0.12 82 1017.7
20260830193334 82 123 1.0 6.0 0.08 0.08 0.08 80 1017.9
20260830192838 84 203 0.0 6.0 0.02 0.02 0.02 77 1018.0
20260830192325 85 254 3.0 5.0 0.00 0.00 0.00 73 1017.8
20260830191830 86 271 1.0 4.0 0.00 0.00 0.00 70 1017.8
20260830191338 86 274 2.0 6.0 0.00 0.00 0.00 69 1017.7
20260830190823 87 325 2.0 6.0 0.00 0.00 0.00 68 1017.8
20260830190331 88 292 3.0 5.0 0.00 0.00 0.00 66 1017.9
20260830185835 89 262 0.0 11.0 0.00 0.00 0.00 64 1017.8
20260830185339 89 272 3.0 11.0 0.00 0.00 0.00 62 1017.8
20260830184903 90 221 2.0 4.0 0.00 0.00 0.00 65 1017.8
20260830184346 89 159 0.0 5.0 0.00 0.00 0.00 63 1017.9
20260830183833 89 267 2.0 6.0 0.00 0.00 0.00 67 1018.1
20260830183357 89 195 3.0 6.0 0.00 0.00 0.00 65 1018.1
20260830182841 89 62 2.0 4.0 0.00 0.00 0.00 66 1018.2
20260830182323 88 88 1.0 4.0 0.00 0.00 0.00 70 1018.4
20260830181831 88 5 1.0 3.0 0.00 0.00 0.00 67 1018.6
20260830181335 88 189 0.0 2.0 0.00 0.00 0.00 69 1018.7
20260830180844 88 189 0.0 5.0 0.00 0.00 0.00 68 1018.8
20260830180329 88 189 1.0 6.0 0.00 0.00 0.00 68 1018.8
20260830175833 88 180 4.0 7.0 0.00 0.00 0.00 68 1018.9
20260830175337 88 199 1.0 7.0 0.00 0.00 0.00 68 1018.9
20260830174901 88 203 3.0 6.0 0.00 0.00 0.00 69 1018.8
20260830174405 87 163 2.0 6.0 0.00 0.00 0.00 71 1018.9
20260830173848 87 252 2.0 7.0 0.00 0.00 0.00 70 1018.9
20260830173332 87 274 2.0 7.0 0.00 0.00 0.00 72 1018.9
20260830172857 86 194 2.0 5.0 0.00 0.00 0.00 72 1019.0
20260830172338 86 190 4.0 6.0 0.00 0.00 0.00 69 1019.2
20260830171824 86 175 2.0 6.0 0.00 0.00 0.00 70 1019.3
20260830171332 87 197 3.0 6.0 0.00 0.00 0.00 71 1019.2
20260830170837 87 214 2.0 6.0 0.00 0.00 0.00 71 1019.3
20260830170325 86 262 2.0 10.0 0.00 0.00 0.00 72 1019.4
20260830165830 85 207 4.0 10.0 0.00 0.00 0.00 72 1019.4
20260830165332 85 186 4.0 9.0 0.00 0.00 0.00 72 1019.5
20260830164840 85 197 2.0 9.0 0.00 0.00 0.00 74 1019.5
20260830164405 85 202 3.0 9.0 0.00 0.00 0.00 73 1019.7
20260830163828 84 192 3.0 6.0 0.00 0.00 0.00 77 1019.7
20260830163333 84 209 3.0 8.0 0.00 0.00 0.00 77 1019.8
20260830162837 84 229 3.0 8.0 0.00 0.00 0.00 75 1019.8
20260830162404 83 193 3.0 9.0 0.00 0.00 0.00 78 1019.7
20260830161847 83 192 3.0 9.0 0.00 0.00 0.00 76 1019.8
20260830161333 83 195 4.0 6.0 0.00 0.00 0.00 79 1019.9
20260830160858 82 208 3.0 6.0 0.00 0.00 0.00 78 1019.9
20260830160341 82 242 3.0 5.0 0.00 0.00 0.00 82 1019.9
20260830155826 81 243 2.0 4.0 0.00 0.00 0.00 81 1019.9
20260830155333 80 207 3.0 4.0 0.00 0.00 0.00 80 1020.0
20260830154901 80 264 1.0 5.0 0.00 0.00 0.00 80 1020.1
20260830154328 80 198 2.0 5.0 0.00 0.00 0.00 79 1020.3
20260830153832 80 196 2.0 5.0 0.00 0.00 0.00 81 1020.3
20260830153357 80 239 1.0 7.0 0.00 0.00 0.00 81 1020.3
20260830152840 80 251 2.0 7.0 0.00 0.00 0.00 80 1020.3
20260830152343 80 190 3.0 7.0 0.00 0.00 0.00 80 1020.3
20260830151829 80 219 3.0 5.0 0.00 0.00 0.00 80 1020.2
20260830151334 80 207 2.0 5.0 0.00 0.00 0.00 80 1020.3
20260830150838 80 215 2.0 7.0 0.00 0.00 0.00 80 1020.2
20260830150343 80 269 3.0 7.0 0.00 0.00 0.00 81 1020.3
20260830145826 80 186 3.0 6.0 0.00 0.00 0.00 81 1020.2
20260830145333 80 269 2.0 5.0 0.00 0.00 0.00 81 1020.2
20260830144842 80 244 3.0 5.0 0.00 0.00 0.00 81 1020.3
20260830144347 79 204 1.0 4.0 0.00 0.00 0.00 82 1020.3
20260830143830 79 227 2.0 7.0 0.00 0.00 0.00 82 1020.2
20260830143335 79 219 4.0 11.0 0.00 0.00 0.00 80 1020.1
20260830142839 79 201 3.0 11.0 0.00 0.00 0.00 81 1020.1
20260830142403 79 198 4.0 6.0 0.00 0.00 0.00 83 1020.1
20260830141826 78 275 1.0 4.0 0.00 0.00 0.00 82 1020.1
20260830141331 77 275 2.0 4.0 0.00 0.00 0.00 83 1020.0
20260830140835 77 300 1.0 3.0 0.00 0.00 0.00 83 1020.0
20260830140400 76 186 1.0 2.0 0.00 0.00 0.00 84 1020.0
20260830135844 75 186 0.0 3.0 0.00 0.00 0.00 85 1020.1
20260830135327 75 186 0.0 3.0 0.00 0.00 0.00 85 1020.3
20260830134832 74 186 0.0 2.0 0.00 0.00 0.00 86 1020.3
20260830134340 73 186 0.0 3.0 0.00 0.00 0.00 86 1020.3
20260830133825 73 186 1.0 3.0 0.00 0.00 0.00 86 1020.4
20260830133329 72 186 1.0 3.0 0.00 0.00 0.00 87 1020.6
20260830132834 72 186 0.0 1.0 0.00 0.00 0.00 86 1020.6
20260830132337 71 186 0.0 2.0 0.00 0.00 0.00 86 1020.6
20260830131824 71 186 1.0 2.0 0.00 0.00 0.00 86 1020.6
20260830131330 71 186 0.0 3.0 0.00 0.00 0.00 86 1020.6
20260830130858 71 186 1.0 3.0 0.00 0.00 0.00 86 1020.7
20260830130342 71 186 0.0 0.0 0.00 0.00 0.00 87 1020.7
20260830125826 71 186 0.0 2.0 0.00 0.00 0.00 87 1020.7
20260830125330 71 186 0.0 2.0 0.00 0.00 0.00 87 1020.9
20260830124838 71 186 0.0 1.0 0.00 0.00 0.00 88 1020.9
20260830124326 70 186 0.0 2.0 0.00 0.00 0.00 88 1020.9
20260830123831 70 186 1.0 2.0 0.00 0.00 0.00 89 1020.9
20260830123354 70 186 1.0 2.0 0.00 0.00 0.00 90 1020.8
20260830122841 69 186 1.0 2.0 0.00 0.00 0.00 91 1020.8
20260830122324 68 186 1.0 1.0 0.00 0.00 0.00 91 1020.9
20260830121829 67 334 0.0 1.0 0.00 0.00 0.00 92 1021.0
20260830121352 66 334 0.0 2.0 0.00 0.00 0.00 92 1021.0
20260830120859 66 334 0.0 2.0 0.00 0.00 0.00 92 1021.0
20260830120343 66 334 1.0 3.0 0.00 0.00 0.00 92 1020.9
20260830115827 65 334 1.0 3.0 0.00 0.00 0.00 92 1021.0
20260830115331 65 334 0.0 2.0 0.00 0.00 0.00 92 1021.0
20260830114835 65 334 1.0 2.0 0.00 0.00 0.00 92 1020.8
20260830114400 64 334 0.0 0.0 0.00 0.00 0.00 92 1020.9
20260830113827 64 334 0.0 0.0 0.00 0.00 0.00 92 1021.0
20260830113332 64 334 0.0 0.0 0.00 0.00 0.00 92 1021.0
20260830112855 64 334 0.0 0.0 0.00 0.00 0.00 92 1020.8